Location: Newark
(38.1089°N, 103.8675°W)
Time: 11:37:27
(UTC+00:00)

Envisat - Pass Details

Date: 22 December 2019
Orbit: 764 x 766 km, 98.1° (Epoch: 18 January)

Event Time Altitude Azimuth Distance (km) Brightness Sun altitude
Rises 00:06:56 0° 141° (SE) 3,220 6.1 -5.7°
Reaches altitude 10° 00:09:25 10° 132° (SE) 2,297 5.3 -6.1°
Maximum altitude 00:13:55 33° 70° (ENE) 1,265 3.6 -6.9°
Drops below altitude 10° 00:18:25 10° 7° (N) 2,310 5.2 -7.8°
Sets 00:20:55 0° 358° (N) 3,240 6.0 -8.2°
